Regional Weather Roundup
Issued by NWS Northern Indiana

Home | Current Version | Previous Version | Graphics & Text | Print | Product List | Glossary On
Versions: 1 2 3 4 5 6 7 8 9 10 11 12 13 14 15 16 17 18 19 20 21 22 23 24 25 26 27 28 29 30 31 32 33 34 35 36 37 38 39 40 41 42 43 44 45 46 47 48 49 50
000
ASUS43 KIWX 220310
RWRIWX

KIWX WEATHER ROUNDUP
NATIONAL WEATHER SERVICE NORTHERN INDIANA
1100 PM EDT SAT OCT 21 2017

NOTE: "FAIR" INDICATES FEW OR NO CLOUDS BELOW 12,000 FEET WITH NO
SIGNIFICANT WEATHER AND/OR OBSTRUCTIONS TO VISIBILITY.

* THESE STATIONS ARE NOT UNDER NWS QUALITY CONTROL. THEY ALSO MAY NOT
  REPORT WEATHER SUCH AS PRECIPITATION OR FOG.

INZ001>027-220400-
NORTHERN INDIANA

CITY           SKY/WX    TMP DP  RH WIND       PRES   REMARKS
GARY*          PTCLDY    70  55  60 SE14      30.03F
VALPARAISO     CLEAR     68  54  60 S13G21    30.06F
MICHIGAN CITY* CLEAR     66  52  59 S10       30.06S
LAPORTE*       CLEAR     64  53  65 S9        30.08S
KNOX*          CLEAR     64  52  63 S13G20    30.08S
SOUTH BEND     CLEAR     66  52  60 S13       30.08F
GOSHEN         CLEAR     66  49  54 S16       30.10F
MONTICELLO*    CLEAR     66  50  57 S8        30.09S
LOGANSPORT*    CLEAR     63  50  63 S9        30.12S
WARSAW*        CLEAR     64  52  63 S5        30.12F
AUBURN*        CLEAR     63  45  51 S5        30.16F
FORT WAYNE     PTCLDY    61  46  57 S10       30.15F
HUNTINGTON*    CLEAR     62  46  55 S8        30.14F
PERU/GRISSOM   CLEAR     63  51  64 S13       30.11F
MARION*        CLEAR     61  46  59 S8        30.15

$$
INZ028>050-220400-
CENTRAL INDIANA

CITY           SKY/WX    TMP DP  RH WIND       PRES   REMARKS
LAFAYETTE      CLEAR     65  51  60 SE12G18   30.08F
KOKOMO*        CLEAR     63  51  65 S14       30.13F
MUNCIE*        CLEAR     64  47  53 S7        30.17S
INDIANAPOLIS   MOCLDY    63  50  62 SE8       30.15R

$$
MIZ043>046-050>051-056>058-064>065-071>073-077>080-220400-
SOUTHWEST LOWER MICHIGAN

CITY           SKY/WX    TMP DP  RH WIND       PRES   REMARKS
BATTLE CREEK   CLEAR     64  44  48 S8        30.12F
BENTON HARBOR  CLEAR     67  52  58 SE12      30.05F
COLDWATER*     CLOUDY    65  40  40 S7        30.14S
HILLSDALE*     PTCLDY    63  43  48 S7        30.16S
HOLLAND        PTCLDY    66  53  63 S12       30.06F
GRAND RAPIDS   CLOUDY    65  47  52 S12       30.08F
KALAMAZOO      CLEAR     65  43  44 S6        30.11S
STURGIS*       CLEAR     64  48  56 S9        30.12S
THREE RIVERS*  FAIR      66  48  52 S9        30.11F

$$
OHZ001>008-015>018-024>025-220400-
NORTHWEST OHIO

CITY           SKY/WX    TMP DP  RH WIND       PRES   REMARKS
WAUSEON*         N/A     57  48  72 S5        30.18S
DEFIANCE       PTCLDY    64  45  49 S8        30.17S
FINDLAY        PTCLDY    60  44  55 S7        30.18S
TOLEDO EXPRESS PTCLDY    63  45  51 S6        30.17S
TOLEDO METCALF PTCLDY    59  43  55 S6        30.19R
LIMA           PTCLDY    59  48  67 S5        30.19F

$$
AND FOR LAKE MICHIGAN COASTAL AND OPEN LAKE BUOY OBSERVATIONS

STATION/POSITION TEMP    WIND        PRES    VSBY  WAVE
                 AIR SEA DIR/SP/G                  HT/PER
                 (F)     (DEG/KT/KT) (MB)    (MI)  (FT/S)
CALUMET HARBOR    70     160/ 12/ 15 1015.7R
MICHIGAN CITY     69     150/ 12/ 15   N/A
BURNS HARBOR      69     170/ 11/ 22 1017.3
SAINT JOSEPH      68     190/  5/ 13 1018.6
SOUTH LAKE BUOY   65 61  150/ 16/ 17 1016.5          3/ 4
4 MI NW BRIDGMAN  66 59  180/ 16/ 21 1017.5          2/ 3
MICHIGAN CITY     67 58  170/ 17/ 25   N/A           2/ 3

$$
&&




USA.gov is the U.S. government's official web portal to all federal, state and local government web resources and services.